GEESAT 5-05

导读

GEESAT 5-05是一颗由中国于2025年9月8日发射的卫星,属于GEESAT 5系列卫星。该卫星的发射进一步充实了中国的卫星星座布局,有望在遥感观测、空间环境监测等相关领域发挥作用,为相关科学研究、行业应用以及社会发展提供数据支撑与服务,助力中国航天事业持续发展。

基本信息
目录编号:
65554
目录名称:
GEESAT 5-05
国际标识:
2025-201E
轨道中心:
EARTH
卫星名称:
GEESAT 5-05
卫星全名:
GEESAT 5-05
卫星状态:
在轨 (已飞行277 天)
发射日期:
2025-09-08 UTC
国别 :
中国 (CN)
星等 :
--
轨道信息
数据来源 国际轨道数据
星历时间: 2026-06-12T07:47:20+0800
20小时前
查看轨道信息
半长轴: 6994.444km
偏心率: 0.0010929
轨道倾角: 49.983°
近地点辐角 260.747°
升交点赤经 63.242°
平近点角 99.224°
近地点: 608.662km
远地点: 623.952km
周期: 97.026分钟
每日圈数: 14.841338
详细信息
使用方式:
暂无
2D轨道图
3D轨道图
轨道高度分析图
轨道倾角分析图
轨道综合分析图
查看轨道综合分析图